EW7835 Weather Reports


Display with metric or nautical units.
time (UTC)temp
F
wind
direction
speed
MPH
gust
MPH
rain 1hr
in
rain 24hr
in
rain mn
in
humidity
%
barometer
mb
20260508133018 46 0.0 0.0 0.00 0.00 0.00 57 1007.2
20260508131517 46 0.0 0.0 0.00 0.00 0.00 58 1007.3
20260508130013 45 0.0 0.0 0.00 0.00 0.00 57 1007.5
20260508124516 44 0.0 0.0 0.00 0.00 0.00 55 1007.6
20260508123012 44 0.0 0.0 0.00 0.00 0.00 51 1007.5
20260508121507 43 0.0 0.0 0.00 0.00 0.00 47 1007.5
20260508120002 42 0.0 0.0 0.00 0.00 0.00 40 1007.5
20260508114607 42 0.0 0.0 0.00 0.00 0.00 35 1007.6
20260508113105 40 0.0 0.0 0.00 0.00 0.00 33 1007.6
20260508111600 40 0.0 0.0 0.00 0.00 0.00 32 1007.5
20260508110022 40 0.0 0.0 0.00 0.00 0.00 37 1007.3
20260508104518 40 0.0 0.0 0.00 0.00 0.00 43 1007.1
20260508103014 40 0.0 0.0 0.00 0.00 0.00 49 1007.1
20260508101514 40 0.0 0.0 0.00 0.00 0.00 54 1007.0
20260508100010 41 0.0 0.0 0.00 0.00 0.00 57 1007.0
20260508094508 41 0.0 0.0 0.00 0.00 0.00 59 1006.8
20260508093037 41 0.0 0.0 0.00 0.00 0.00 60 1006.7
20260508091602 41 0.0 0.0 0.00 0.00 0.00 61 1006.4
20260508090030 41 0.0 0.0 0.00 0.00 0.00 61 1006.2
20260508084532 41 0.0 0.0 0.00 0.00 0.00 61 1006.2
20260508083032 40 0.0 0.0 0.00 0.00 0.00 60 1006.0
20260508081521 40 0.0 0.0 0.00 0.00 0.00 61 1005.9
20260508080014 40 0.0 0.0 0.00 0.00 0.00 61 1005.9
20260508074509 39 0.0 0.0 0.00 0.00 0.00 61 1005.8
20260508073005 39 0.0 0.0 0.00 0.00 0.00 60 1005.7
20260508071503 39 0.0 0.0 0.00 0.00 0.00 61 1005.7
20260508070027 39 0.0 0.0 0.00 0.00 0.00 61 1005.7
20260508064531 39 0.0 0.0 0.00 0.00 0.00 61 1005.7
20260508063120 39 0.0 0.0 0.00 0.00 0.00 62 1005.8
20260508061544 39 0.0 0.0 0.00 0.00 0.00 62 1005.7
20260508060037 38 0.0 0.0 0.00 0.00 0.00 63 1005.9
20260508054533 38 0.0 0.0 0.00 0.00 0.00 62 1006.1
20260508053042 38 0.0 0.0 0.00 0.00 0.00 62 1006.1
20260508051524 38 0.0 0.0 0.00 0.00 0.00 62 1006.0
20260508050018 39 0.0 0.0 0.00 0.00 0.00 62 1006.1
20260508044513 39 0.0 0.0 0.00 0.00 0.00 61 1006.0
20260508043009 40 0.0 0.0 0.00 0.00 0.00 58 1005.9
20260508041511 41 0.0 0.0 0.00 0.00 0.00 57 1005.8
20260508040106 41 0.0 0.0 0.00 0.00 0.00 58 1005.6
20260508034533 41 0.0 0.0 0.00 0.00 0.00 56 1005.6
20260508033034 42 0.0 0.0 0.00 0.00 0.00 56 1005.8
20260508031556 42 0.0 0.0 0.00 0.00 0.00 57 1005.8
20260508030050 43 0.0 0.0 0.00 0.00 0.00 54 1005.9
20260508024542 43 0.0 0.0 0.00 0.00 0.00 52 1006.0
20260508023038 43 0.0 0.0 0.00 0.00 0.00 54 1005.9
20260508021537 43 0.0 0.0 0.00 0.00 0.00 55 1006.0
20260508020030 43 0.0 0.0 0.00 0.00 0.00 52 1005.8
20260508014523 44 0.0 0.0 0.00 0.00 0.00 50 1005.8
20260508013018 44 0.0 0.0 0.00 0.00 0.00 47 1005.7
20260508011515 45 0.0 0.0 0.00 0.00 0.00 46 1005.6
20260508010018 46 0.0 0.0 0.00 0.00 0.00 44 1005.5
20260508004502 47 0.0 0.0 0.00 0.00 0.00 43 1005.2
20260508003117 47 0.0 0.0 0.00 0.00 0.00 41 1005.1
20260508001557 48 0.0 0.0 0.00 0.00 0.00 40 1004.9
20260508000050 49 0.0 0.0 0.00 0.00 0.00 39 1004.7
20260507234543 50 0.0 0.0 0.00 0.00 0.00 38 1004.6
20260507233041 50 0.0 0.0 0.00 0.00 0.00 37 1004.5
20260507231534 51 0.0 0.0 0.00 0.00 0.00 38 1004.5
20260507230046 52 0.0 0.0 0.00 0.00 0.00 37 1004.4
20260507224529 52 0.0 0.0 0.00 0.00 0.00 36 1004.4
20260507223033 52 0.0 0.0 0.00 0.00 0.00 36 1004.3
20260507221514 53 0.0 0.0 0.00 0.00 0.00 37 1004.5
20260507220010 53 0.0 0.0 0.00 0.00 0.00 38 1004.6
20260507214503 53 0.0 0.0 0.00 0.00 0.00 39 1004.6
20260507213142 52 0.0 0.0 0.00 0.00 0.00 43 1004.5
20260507211556 52 0.0 0.0 0.00 0.00 0.00 42 1004.6
20260507210055 52 0.0 0.0 0.00 0.00 0.00 44 1004.4
20260507204544 52 0.0 0.0 0.00 0.00 0.00 41 1004.4
20260507203041 53 0.0 0.0 0.00 0.00 0.00 41 1004.5
20260507201537 53 0.0 0.0 0.00 0.00 0.00 42 1004.4
20260507200047 52 0.0 0.0 0.00 0.00 0.00 40 1004.6
20260507194522 52 0.0 0.0 0.00 0.00 0.00 43 1004.8
20260507193037 53 0.0 0.0 0.00 0.00 0.00 41 1004.7
20260507191513 53 0.0 0.0 0.00 0.00 0.00 40 1005.0
20260507190007 53 0.0 0.0 0.00 0.00 0.00 42 1005.1
20260507184534 52 0.0 0.0 0.00 0.00 0.00 45 1005.3
20260507183037 53 0.0 0.0 0.00 0.00 0.00 45 1005.4
20260507181522 53 0.0 0.0 0.00 0.00 0.00 44 1005.5
20260507180018 51 0.0 0.0 0.00 0.00 0.00 46 1005.6
20260507174519 51 0.0 0.0 0.00 0.00 0.00 45 1005.6
20260507173015 52 0.0 0.0 0.00 0.00 0.00 50 1005.6
20260507171502 51 0.0 0.0 0.00 0.00 0.00 50 1005.8
20260507170057 50 0.0 0.0 0.00 0.00 0.00 53 1005.8
20260507164556 51 0.0 0.0 0.00 0.00 0.00 50 1005.9
20260507163051 51 0.0 0.0 0.00 0.00 0.00 49 1006.2
20260507161554 50 0.0 0.0 0.00 0.00 0.00 49 1006.4
20260507160042 50 0.0 0.0 0.00 0.00 0.00 51 1006.5
20260507154537 50 0.0 0.0 0.00 0.00 0.00 51 1006.6
20260507153036 50 0.0 0.0 0.00 0.00 0.00 51 1006.5
20260507151529 50 0.0 0.0 0.00 0.00 0.00 54 1006.7
20260507150021 49 0.0 0.0 0.00 0.00 0.00 52 1006.8
20260507144525 49 0.0 0.0 0.00 0.00 0.00 53 1006.8
20260507143011 48 0.0 0.0 0.00 0.00 0.00 50 1006.9
20260507141507 48 0.0 0.0 0.00 0.00 0.00 52 1006.9
20260507140001 48 0.0 0.0 0.00 0.00 0.00 54 1006.9
20260507134601 47 0.0 0.0 0.00 0.00 0.00 53 1006.9